{"data":{"norad_id":52125,"intl_designator":"2022-029AP","name":"STARLINK-3727","alt_names":[],"object_type":"PAYLOAD","status":"ACTIVE","operator":null,"country":"US","launch_date":"2022-03-19","launch_site_code":"AFETR","launch_vehicle":null,"mission":null,"orbit_class":"UNKNOWN","rcs_meters":null,"size_class":null,"mass_kg":null,"dimensions":null,"purposes":["comms"],"wikipedia_slug":null,"has_3d_model":false,"image_url":null,"decayed_at":null,"tle_current":{"epoch":"2026-05-25T03:08:28.808736Z","epoch_age_seconds":63747,"freshness":"FRESH","line1":"1 52125U 22029AP  26145.13088899 -.00000454  00000+0 -10416-4 0  9994","line2":"2 52125  53.2129  85.9620 0001495  81.3809 278.7352 15.08839297232471","mean_motion":15.08839297,"eccentricity":0.0001495,"inclination_deg":53.2129,"raan_deg":85.962,"arg_perigee_deg":81.3809,"mean_anomaly_deg":278.7352,"bstar":-1.0416e-5,"rev_number":23247,"period_min":95.437599144132,"perigee_km":538.7113143153,"apogee_km":540.77976119409,"semimajor_km":6917.8825377547,"source":"CELESTRAK","updated_at":"2026-05-25T13:38:17.076420Z"}}}